Home > Weather > Scranton > Past weeks

Flag for USA Past Weather in Scranton, Pennsylvania, USA — Yesterday and Last 2 Weeks

Now
84 °F

Sunny.


Feels Like: 86 °F
Forecast: 64 / 87 °F
Wind: 8 mph from South

Location: Barre - Scranton - Wilkes-Barre / Scranton International Airport

Current Time: Aug 28, 2016 at 6:47:13 PM

Latest Report: Aug 28, 2016 at 5:54 PM


Visibility: 10 mi

Pressure: 30.15 "Hg

Humidity: 53%

Dew Point: 65 °F

Location of ScrantonLocation

Past Weather in Scranton — Graph

°F

Scranton Temperature Yesterday

Maximum temperature yesterday: 86 °F (at 3:54 PM)
Minimum temperature yesterday: 63 °F (at 4:54 AM)
Average temperature yesterday: 74 °F

High & Low Weather Summary for the Past Weeks

 TemperatureHumidityPressure
High90 °F (Aug 13, 5:54 PM)97% (Aug 13, 10:54 PM)30.34 "Hg (Aug 13, 10:54 PM)
Low51 °F (Aug 23, 4:54 AM)38% (Aug 19, 5:54 PM)29.76 "Hg (Aug 21, 2:54 PM)
Average74 °F75%30.06 "Hg
* Reported Aug 13 4:54 PM — Aug 28 4:54 PM, Scranton, Weather by CustomWeather, © 2016

Note: Actual official high and low records may vary slightly from our data, if they occured in-between our weather recording intervals... More about our weather records

Advertising

Scranton Weather History for the Previous 24 Hours

Scroll right to see more
 ConditionsComfort  
Time TempWeatherWind HumidityBarometerVisibility
4:54 PM
Sun, Aug 28
85 °FSunny.8 mph48%30.16 "Hg10 mi
3:54 PM86 °FSunny.8 mph46%30.16 "Hg10 mi
2:54 PM87 °FSunny.8 mph45%30.18 "Hg10 mi
1:54 PM86 °FSunny.9 mph45%30.20 "Hg10 mi
12:54 PM85 °FSunny.10 mph43%30.22 "Hg10 mi
11:54 AM82 °FSunny.6 mph49%30.24 "Hg10 mi
10:54 AM80 °FSunny.5 mph52%30.25 "Hg10 mi
9:54 AM77 °FSunny.5 mph60%30.26 "Hg10 mi
8:54 AM74 °FSunny.3 mph64%30.25 "Hg10 mi
7:54 AM70 °FSunny.No wind73%30.25 "Hg10 mi
6:54 AM63 °FClear.No wind87%30.26 "Hg10 mi
5:54 AM63 °FClear.5 mph87%30.23 "Hg10 mi
4:54 AM64 °FClear.No wind87%30.22 "Hg10 mi
3:54 AM67 °FClear.No wind76%30.20 "Hg10 mi
2:54 AM68 °FClear.No wind76%30.19 "Hg10 mi
1:54 AM69 °FClear.No wind76%30.19 "Hg10 mi
12:54 AM69 °FClear.5 mph79%30.20 "Hg10 mi
11:54 PM
Sat, Aug 27
69 °FClear.7 mph79%30.20 "Hg10 mi
10:54 PM70 °FClear.8 mph79%30.22 "Hg10 mi
9:54 PM71 °FClear.7 mph78%30.21 "Hg10 mi
8:54 PM74 °FClear.5 mph74%30.21 "Hg10 mi
7:54 PM78 °FSunny.5 mph62%30.19 "Hg10 mi
6:54 PM80 °FSunny.5 mph58%30.17 "Hg10 mi
Weather by CustomWeather, © 2016

See weather overviewHow to use our weather pages